Year,Month,Day,Hour,Minute,Value (Times are PST for temperature in C)
2008,12,15,00,00,-6.60
2008,12,15,00,01,-6.60
2008,12,15,00,02,-6.60
2008,12,15,00,03,-6.70
2008,12,15,00,04,-6.70
2008,12,15,00,05,-6.70
2008,12,15,00,06,-6.80
2008,12,15,00,07,-6.80
2008,12,15,00,08,-6.80
2008,12,15,00,09,-6.80
2008,12,15,00,10,-6.80
2008,12,15,00,11,-6.80
2008,12,15,00,12,-6.90
2008,12,15,00,13,-6.90
2008,12,15,00,14,-7.00
2008,12,15,00,15,-7.00
2008,12,15,00,16,-7.10
2008,12,15,00,17,-7.10
2008,12,15,00,18,-7.10
2008,12,15,00,19,-7.10
2008,12,15,00,20,-7.20
2008,12,15,00,21,-7.20
2008,12,15,00,22,-7.20
2008,12,15,00,23,-7.20
2008,12,15,00,24,-7.20
2008,12,15,00,25,-7.20
2008,12,15,00,26,-7.20
2008,12,15,00,27,-7.20
2008,12,15,00,28,-7.20
2008,12,15,00,29,-7.20
2008,12,15,00,30,-7.20
2008,12,15,00,31,-7.10
2008,12,15,00,32,-7.10
2008,12,15,00,33,-7.10
2008,12,15,00,34,-7.20
2008,12,15,00,35,-7.20
2008,12,15,00,36,-7.20
2008,12,15,00,37,-7.20
2008,12,15,00,38,-7.20
2008,12,15,00,39,-7.20
2008,12,15,00,40,-7.20
2008,12,15,00,41,-7.20
2008,12,15,00,42,-7.20
2008,12,15,00,43,-7.20
2008,12,15,00,44,-7.20
2008,12,15,00,45,-7.20
2008,12,15,00,46,-7.20
2008,12,15,00,47,-7.20
2008,12,15,00,48,-7.20
2008,12,15,00,49,-7.20
2008,12,15,00,50,-7.20
2008,12,15,00,51,-7.20
2008,12,15,00,52,-7.30
2008,12,15,00,53,-7.30
2008,12,15,00,54,-7.30
2008,12,15,00,55,-7.30
2008,12,15,00,56,-7.30
2008,12,15,00,57,-7.40
2008,12,15,00,58,-7.30
2008,12,15,00,59,-7.30
2008,12,15,01,00,-7.30
2008,12,15,01,01,-7.20
2008,12,15,01,02,-7.20
2008,12,15,01,03,-7.20
2008,12,15,01,04,-7.20
2008,12,15,01,05,-7.20
2008,12,15,01,06,-7.30
2008,12,15,01,07,-7.30
2008,12,15,01,08,-7.40
2008,12,15,01,09,-7.40
2008,12,15,01,10,-7.50
2008,12,15,01,11,-7.50
2008,12,15,01,12,-7.60
2008,12,15,01,13,-7.60
2008,12,15,01,14,-7.70
2008,12,15,01,15,-7.80
2008,12,15,01,16,-7.80
2008,12,15,01,17,-7.90
2008,12,15,01,18,-7.90
2008,12,15,01,19,-7.90
2008,12,15,01,20,-7.90
2008,12,15,01,21,-7.90
2008,12,15,01,22,-7.90
2008,12,15,01,23,-7.90
2008,12,15,01,24,-7.90
2008,12,15,01,25,-7.90
2008,12,15,01,26,-7.90
2008,12,15,01,27,-7.90
2008,12,15,01,28,-7.90
2008,12,15,01,29,-7.90
2008,12,15,01,30,-7.90
2008,12,15,01,31,-8.00
2008,12,15,01,32,-8.00
2008,12,15,01,33,-8.00
2008,12,15,01,34,-8.10
2008,12,15,01,35,-8.10
2008,12,15,01,36,-8.20
2008,12,15,01,37,-8.20
2008,12,15,01,38,-8.20
2008,12,15,01,39,-8.20
2008,12,15,01,40,-8.30
2008,12,15,01,41,-8.30
2008,12,15,01,42,-8.30
2008,12,15,01,43,-8.30
2008,12,15,01,44,-8.30
2008,12,15,01,45,-8.40
2008,12,15,01,46,-8.40
2008,12,15,01,47,-8.40
2008,12,15,01,48,-8.40
2008,12,15,01,49,-8.40
2008,12,15,01,50,-8.40
2008,12,15,01,51,-8.50
2008,12,15,01,52,-8.50
2008,12,15,01,53,-8.50
2008,12,15,01,54,-8.50
2008,12,15,01,55,-8.50
2008,12,15,01,56,-8.50
2008,12,15,01,57,-8.50
2008,12,15,01,58,-8.50
2008,12,15,01,59,-8.50
2008,12,15,02,00,-8.40
2008,12,15,02,01,-8.40
2008,12,15,02,02,-8.40
2008,12,15,02,03,-8.40
2008,12,15,02,04,-8.30
2008,12,15,02,05,-8.20
2008,12,15,02,06,-8.20
2008,12,15,02,07,-8.20
2008,12,15,02,08,-8.20
2008,12,15,02,09,-8.20
2008,12,15,02,10,-8.20
2008,12,15,02,11,-8.30
2008,12,15,02,12,-8.30
2008,12,15,02,13,-8.40
2008,12,15,02,14,-8.40
2008,12,15,02,15,-8.50
2008,12,15,02,16,-8.50
2008,12,15,02,17,-8.60
2008,12,15,02,18,-8.70
2008,12,15,02,19,-8.70
2008,12,15,02,20,-8.80
2008,12,15,02,21,-8.80
2008,12,15,02,22,-8.90
2008,12,15,02,23,-8.90
2008,12,15,02,24,-8.90
2008,12,15,02,25,-8.80
2008,12,15,02,26,-8.80
2008,12,15,02,27,-8.80
2008,12,15,02,28,-8.80
2008,12,15,02,29,-8.70
2008,12,15,02,30,-8.70
2008,12,15,02,31,-8.60
2008,12,15,02,32,-8.50
2008,12,15,02,33,-8.40
2008,12,15,02,34,-8.40
2008,12,15,02,35,-8.30
2008,12,15,02,36,-8.30
2008,12,15,02,37,-8.30
2008,12,15,02,38,-8.30
2008,12,15,02,39,-8.30
2008,12,15,02,40,-8.30
2008,12,15,02,41,-8.20
2008,12,15,02,42,-8.20
2008,12,15,02,43,-8.20
2008,12,15,02,44,-8.20
2008,12,15,02,45,-8.20
2008,12,15,02,46,-8.20
2008,12,15,02,47,-8.30
2008,12,15,02,48,-8.30
2008,12,15,02,49,-8.40
2008,12,15,02,50,-8.40
2008,12,15,02,51,-8.50
2008,12,15,02,52,-8.60
2008,12,15,02,53,-8.60
2008,12,15,02,54,-8.70
2008,12,15,02,55,-8.70
2008,12,15,02,56,-8.70
2008,12,15,02,57,-8.70
2008,12,15,02,58,-8.80
2008,12,15,02,59,-8.80
2008,12,15,03,00,-8.80
2008,12,15,03,01,-8.70
2008,12,15,03,02,-8.70
2008,12,15,03,03,-8.70
2008,12,15,03,04,-8.60
2008,12,15,03,05,-8.60
2008,12,15,03,06,-8.60
2008,12,15,03,07,-8.50
2008,12,15,03,08,-8.50
2008,12,15,03,09,-8.40
2008,12,15,03,10,-8.40
2008,12,15,03,11,-8.40
2008,12,15,03,12,-8.40
2008,12,15,03,13,-8.30
2008,12,15,03,14,-8.30
2008,12,15,03,15,-8.40
2008,12,15,03,16,-8.40
2008,12,15,03,17,-8.50
2008,12,15,03,18,-8.50
2008,12,15,03,19,-8.50
2008,12,15,03,20,-8.60
2008,12,15,03,21,-8.60
2008,12,15,03,22,-8.60
2008,12,15,03,23,-8.70
2008,12,15,03,24,-8.70
2008,12,15,03,25,-8.80
2008,12,15,03,26,-8.80
2008,12,15,03,27,-8.90
2008,12,15,03,28,-8.90
2008,12,15,03,29,-8.90
2008,12,15,03,30,-9.00
2008,12,15,03,31,-9.10
2008,12,15,03,32,-9.10
2008,12,15,03,33,-9.00
2008,12,15,03,34,-9.00
2008,12,15,03,35,-8.90
2008,12,15,03,36,-8.90
2008,12,15,03,37,-8.80
2008,12,15,03,38,-8.80
2008,12,15,03,39,-8.80
2008,12,15,03,40,-8.80
2008,12,15,03,41,-8.80
2008,12,15,03,42,-8.80
2008,12,15,03,43,-8.80
2008,12,15,03,44,-8.70
2008,12,15,03,45,-8.70
2008,12,15,03,46,-8.70
2008,12,15,03,47,-8.60
2008,12,15,03,48,-8.60
2008,12,15,03,49,-8.60
2008,12,15,03,50,-8.70
2008,12,15,03,51,-8.70
2008,12,15,03,52,-8.70
2008,12,15,03,53,-8.70
2008,12,15,03,54,-8.70
2008,12,15,03,55,-8.80
2008,12,15,03,56,-8.80
2008,12,15,03,57,-8.80
2008,12,15,03,58,-8.80
2008,12,15,03,59,-8.80
2008,12,15,04,00,-8.90
2008,12,15,04,01,-8.90
2008,12,15,04,02,-8.90
2008,12,15,04,03,-8.90
2008,12,15,04,04,-8.90
2008,12,15,04,05,-8.90
2008,12,15,04,06,-8.80
2008,12,15,04,07,-8.80
2008,12,15,04,08,-8.80
2008,12,15,04,09,-8.80
2008,12,15,04,10,-8.90
2008,12,15,04,11,-8.90
2008,12,15,04,12,-9.00
2008,12,15,04,13,-9.00
2008,12,15,04,14,-8.90
2008,12,15,04,15,-8.80
2008,12,15,04,16,-8.70
2008,12,15,04,17,-8.70
2008,12,15,04,18,-8.70
2008,12,15,04,19,-8.70
2008,12,15,04,20,-8.70
2008,12,15,04,21,-8.60
2008,12,15,04,22,-8.60
2008,12,15,04,23,-8.60
2008,12,15,04,24,-8.70
2008,12,15,04,25,-8.70
2008,12,15,04,26,-8.70
2008,12,15,04,27,-8.70
2008,12,15,04,28,-8.70
2008,12,15,04,29,-8.80
2008,12,15,04,30,-8.80
2008,12,15,04,31,-8.80
2008,12,15,04,32,-8.90
2008,12,15,04,33,-8.90
2008,12,15,04,34,-9.00
2008,12,15,04,35,-9.00
2008,12,15,04,36,-9.10
2008,12,15,04,37,-9.10
2008,12,15,04,38,-9.20
2008,12,15,04,39,-9.20
2008,12,15,04,40,-9.20
2008,12,15,04,41,-9.20
2008,12,15,04,42,-9.20
2008,12,15,04,43,-9.20
2008,12,15,04,44,-9.20
2008,12,15,04,45,-9.20
2008,12,15,04,46,-9.20
2008,12,15,04,47,-9.20
2008,12,15,04,48,-9.20
2008,12,15,04,49,-9.20
2008,12,15,04,50,-9.10
2008,12,15,04,51,-9.10
2008,12,15,04,52,-8.90
2008,12,15,04,53,-8.80
2008,12,15,04,54,-8.80
2008,12,15,04,55,-8.70
2008,12,15,04,56,-8.60
2008,12,15,04,57,-8.60
2008,12,15,04,58,-8.60
2008,12,15,04,59,-8.60
2008,12,15,05,00,-8.60
2008,12,15,05,01,-8.60
2008,12,15,05,02,-8.60
2008,12,15,05,03,-8.60
2008,12,15,05,04,-8.60
2008,12,15,05,05,-8.70
2008,12,15,05,06,-8.70
2008,12,15,05,07,-8.80
2008,12,15,05,08,-8.80
2008,12,15,05,09,-8.80
2008,12,15,05,10,-8.80
2008,12,15,05,11,-8.90
2008,12,15,05,12,-8.90
2008,12,15,05,13,-8.90
2008,12,15,05,14,-8.90
2008,12,15,05,15,-8.90
2008,12,15,05,16,-8.90
2008,12,15,05,17,-8.90
2008,12,15,05,18,-8.90
2008,12,15,05,19,-8.90
2008,12,15,05,20,-9.00
2008,12,15,05,21,-9.00
2008,12,15,05,22,-9.10
2008,12,15,05,23,-9.10
2008,12,15,05,24,-9.20
2008,12,15,05,25,-9.20
2008,12,15,05,26,-9.20
2008,12,15,05,27,-9.20
2008,12,15,05,28,-9.10
2008,12,15,05,29,-9.00
2008,12,15,05,30,-8.90
2008,12,15,05,31,-8.90
2008,12,15,05,32,-8.90
2008,12,15,05,33,-8.90
2008,12,15,05,34,-9.00
2008,12,15,05,35,-9.00
2008,12,15,05,36,-9.00
2008,12,15,05,37,-9.00
2008,12,15,05,38,-9.00
2008,12,15,05,39,-9.10
2008,12,15,05,40,-9.10
2008,12,15,05,41,-9.10
2008,12,15,05,42,-9.20
2008,12,15,05,43,-9.20
2008,12,15,05,44,-9.30
2008,12,15,05,45,-9.30
2008,12,15,05,46,-9.30
2008,12,15,05,47,-9.40
2008,12,15,05,48,-9.40
2008,12,15,05,49,-9.40
2008,12,15,05,50,-9.50
2008,12,15,05,51,-9.50
2008,12,15,05,52,-9.60
2008,12,15,05,53,-9.60
2008,12,15,05,55,-9.70
2008,12,15,05,56,-9.70
2008,12,15,05,57,-9.80
2008,12,15,05,58,-9.80
2008,12,15,05,59,-9.90
2008,12,15,06,00,-9.90
2008,12,15,06,01,-9.90
2008,12,15,06,02,-9.80
2008,12,15,06,03,-9.80
2008,12,15,06,04,-9.80
2008,12,15,06,05,-9.80
2008,12,15,06,06,-9.80
2008,12,15,06,07,-9.70
2008,12,15,06,08,-9.60
2008,12,15,06,09,-9.60
2008,12,15,06,10,-9.60
2008,12,15,06,11,-9.60
2008,12,15,06,12,-9.50
2008,12,15,06,13,-9.50
2008,12,15,06,14,-9.40
2008,12,15,06,15,-9.30
2008,12,15,06,16,-9.30
2008,12,15,06,17,-9.30
2008,12,15,06,18,-9.20
2008,12,15,06,19,-9.20
2008,12,15,06,20,-9.20
2008,12,15,06,21,-9.30
2008,12,15,06,22,-9.30
2008,12,15,06,23,-9.30
2008,12,15,06,24,-9.40
2008,12,15,06,25,-9.50
2008,12,15,06,26,-9.50
2008,12,15,06,27,-9.60
2008,12,15,06,28,-9.70
2008,12,15,06,29,-9.80
2008,12,15,06,30,-9.80
2008,12,15,06,31,-9.90
2008,12,15,06,32,-10.00
2008,12,15,06,33,-10.00
2008,12,15,06,34,-10.10
2008,12,15,06,35,-10.10
2008,12,15,06,36,-10.10
2008,12,15,06,37,-10.20
2008,12,15,06,38,-10.10
2008,12,15,06,39,-10.10
2008,12,15,06,40,-10.00
2008,12,15,06,41,-9.90
2008,12,15,06,42,-9.80
2008,12,15,06,43,-9.80
2008,12,15,06,44,-9.80
2008,12,15,06,45,-9.80
2008,12,15,06,46,-9.80
2008,12,15,06,47,-9.80
2008,12,15,06,48,-9.80
2008,12,15,06,49,-9.80
2008,12,15,06,50,-9.80
2008,12,15,06,51,-9.80
2008,12,15,06,52,-9.80
2008,12,15,06,53,-9.90
2008,12,15,06,54,-9.90
2008,12,15,06,55,-9.90
2008,12,15,06,56,-10.00
2008,12,15,06,57,-10.00
2008,12,15,06,58,-10.00
2008,12,15,06,59,-10.10
2008,12,15,07,00,-10.10
2008,12,15,07,01,-10.10
2008,12,15,07,02,-10.10
2008,12,15,07,03,-10.10
2008,12,15,07,04,-10.10
2008,12,15,07,05,-10.10
2008,12,15,07,06,-10.10
2008,12,15,07,07,-10.10
2008,12,15,07,08,-10.10
2008,12,15,07,09,-10.10
2008,12,15,07,10,-10.10
2008,12,15,07,11,-10.10
2008,12,15,07,12,-10.10
2008,12,15,07,13,-10.20
2008,12,15,07,14,-10.20
2008,12,15,07,15,-10.20
2008,12,15,07,16,-10.30
2008,12,15,07,17,-10.30
2008,12,15,07,18,-10.40
2008,12,15,07,19,-10.40
2008,12,15,07,20,-10.40
2008,12,15,07,21,-10.50
2008,12,15,07,22,-10.60
2008,12,15,07,23,-10.60
2008,12,15,07,24,-10.70
2008,12,15,07,25,-10.60
2008,12,15,07,26,-10.60
2008,12,15,07,27,-10.60
2008,12,15,07,28,-10.60
2008,12,15,07,29,-10.50
2008,12,15,07,30,-10.40
2008,12,15,07,31,-10.40
2008,12,15,07,32,-10.40
2008,12,15,07,33,-10.40
2008,12,15,07,34,-10.40
2008,12,15,07,35,-10.40
2008,12,15,07,36,-10.40
2008,12,15,07,37,-10.40
2008,12,15,07,38,-10.50
2008,12,15,07,39,-10.60
2008,12,15,07,40,-10.60
2008,12,15,07,41,-10.70
2008,12,15,07,42,-10.70
2008,12,15,07,43,-10.70
2008,12,15,07,44,-10.70
2008,12,15,07,45,-10.70
2008,12,15,07,46,-10.60
2008,12,15,07,47,-10.50
2008,12,15,07,48,-10.40
2008,12,15,07,49,-10.30
2008,12,15,07,50,-10.30
2008,12,15,07,51,-10.20
2008,12,15,07,52,-10.10
2008,12,15,07,53,-10.10
2008,12,15,07,54,-10.00
2008,12,15,07,55,-9.90
2008,12,15,07,56,-9.90
2008,12,15,07,57,-9.90
2008,12,15,07,58,-9.80
2008,12,15,07,59,-9.80
2008,12,15,08,00,-9.80
2008,12,15,08,01,-9.80
2008,12,15,08,02,-9.80
2008,12,15,08,03,-9.80
2008,12,15,08,04,-9.90
2008,12,15,08,05,-9.90
2008,12,15,08,06,-10.00
2008,12,15,08,07,-10.00
2008,12,15,08,08,-10.10
2008,12,15,08,09,-10.10
2008,12,15,08,10,-10.10
2008,12,15,08,11,-10.20
2008,12,15,08,12,-10.20
2008,12,15,08,13,-10.30
2008,12,15,08,14,-10.30
2008,12,15,08,15,-10.40
2008,12,15,08,16,-10.40
2008,12,15,08,17,-10.40
2008,12,15,08,18,-10.50
2008,12,15,08,19,-10.50
2008,12,15,08,20,-10.60
2008,12,15,08,21,-10.50
2008,12,15,08,22,-10.40
2008,12,15,08,23,-10.30
2008,12,15,08,24,-10.30
2008,12,15,08,25,-10.20
2008,12,15,08,26,-10.20
2008,12,15,08,27,-10.20
2008,12,15,08,28,-10.20
2008,12,15,08,29,-10.20
2008,12,15,08,30,-10.20
2008,12,15,08,31,-10.20
2008,12,15,08,32,-10.20
2008,12,15,08,33,-10.20
2008,12,15,08,34,-10.20
2008,12,15,08,35,-10.20
2008,12,15,08,36,-10.20
2008,12,15,08,37,-10.20
2008,12,15,08,38,-10.20
2008,12,15,08,39,-10.20
2008,12,15,08,40,-10.30
2008,12,15,08,41,-10.30
2008,12,15,08,42,-10.30
2008,12,15,08,43,-10.30
2008,12,15,08,44,-10.30
2008,12,15,08,45,-10.30
2008,12,15,08,46,-10.40
2008,12,15,08,47,-10.40
2008,12,15,08,48,-10.40
2008,12,15,08,49,-10.40
2008,12,15,08,50,-10.40
2008,12,15,08,51,-10.40
2008,12,15,08,52,-10.40
2008,12,15,08,53,-10.40
2008,12,15,08,54,-10.40
2008,12,15,08,55,-10.40
2008,12,15,08,56,-10.30
2008,12,15,08,57,-10.20
2008,12,15,08,58,-10.10
2008,12,15,08,59,-10.10
2008,12,15,09,00,-10.10
2008,12,15,09,01,-10.00
2008,12,15,09,02,-10.00
2008,12,15,09,03,-9.90
2008,12,15,09,04,-9.90
2008,12,15,09,05,-9.90
2008,12,15,09,06,-9.80
2008,12,15,09,07,-9.80
2008,12,15,09,08,-9.80
2008,12,15,09,09,-9.80
2008,12,15,09,10,-9.80
2008,12,15,09,11,-9.80
2008,12,15,09,12,-9.70
2008,12,15,09,13,-9.70
2008,12,15,09,14,-9.60
2008,12,15,09,15,-9.50
2008,12,15,09,16,-9.40
2008,12,15,09,17,-9.40
2008,12,15,09,18,-9.40
2008,12,15,09,19,-9.40
2008,12,15,09,20,-9.40
2008,12,15,09,21,-9.40
2008,12,15,09,22,-9.40
2008,12,15,09,23,-9.40
2008,12,15,09,24,-9.30
2008,12,15,09,25,-9.30
2008,12,15,09,26,-9.30
2008,12,15,09,27,-9.30
2008,12,15,09,28,-9.20
2008,12,15,09,29,-9.10
2008,12,15,09,30,-9.00
2008,12,15,09,31,-8.80
2008,12,15,09,32,-8.80
2008,12,15,09,33,-8.70
2008,12,15,09,34,-8.60
2008,12,15,09,35,-8.60
2008,12,15,09,36,-8.50
2008,12,15,09,37,-8.50
2008,12,15,09,38,-8.40
2008,12,15,09,39,-8.40
2008,12,15,09,40,-8.40
2008,12,15,09,41,-8.40
2008,12,15,09,42,-8.30
2008,12,15,09,43,-8.30
2008,12,15,09,44,-8.30
2008,12,15,09,45,-8.20
2008,12,15,09,46,-8.10
2008,12,15,09,47,-8.10
2008,12,15,09,48,-8.00
2008,12,15,09,49,-7.80
2008,12,15,09,50,-7.70
2008,12,15,09,51,-7.70
2008,12,15,09,52,-7.70
2008,12,15,09,53,-7.50
2008,12,15,09,54,-7.40
2008,12,15,09,55,-7.30
2008,12,15,09,56,-7.20
2008,12,15,09,57,-7.20
2008,12,15,09,58,-7.10
2008,12,15,09,59,-6.90
2008,12,15,10,00,-6.80
2008,12,15,10,01,-6.80
2008,12,15,10,02,-6.70
2008,12,15,10,03,-6.60
2008,12,15,10,04,-6.50
2008,12,15,10,05,-6.50
2008,12,15,10,06,-6.40
2008,12,15,10,07,-6.30
2008,12,15,10,08,-6.20
2008,12,15,10,09,-6.10
2008,12,15,10,10,-6.00
2008,12,15,10,11,-5.90
2008,12,15,10,12,-5.80
2008,12,15,10,13,-5.70
2008,12,15,10,14,-5.60
2008,12,15,10,15,-5.50
2008,12,15,10,16,-5.40
2008,12,15,10,17,-5.30
2008,12,15,10,18,-5.30
2008,12,15,10,19,-5.20
2008,12,15,10,20,-5.10
2008,12,15,10,21,-4.90
2008,12,15,10,22,-4.80
2008,12,15,10,23,-4.70
2008,12,15,10,24,-4.70
2008,12,15,10,25,-4.70
2008,12,15,10,26,-4.70
2008,12,15,10,27,-4.70
2008,12,15,10,28,-4.70
2008,12,15,10,29,-4.60
2008,12,15,10,30,-4.60
2008,12,15,10,31,-4.60
2008,12,15,10,32,-4.50
2008,12,15,10,33,-4.40
2008,12,15,10,34,-4.20
2008,12,15,10,35,-4.10
2008,12,15,10,36,-4.10
2008,12,15,10,37,-4.00
2008,12,15,10,38,-3.90
2008,12,15,10,39,-3.80
2008,12,15,10,40,-3.70
2008,12,15,10,41,-3.60
2008,12,15,10,42,-3.60
2008,12,15,10,43,-3.50
2008,12,15,10,44,-3.60
2008,12,15,10,45,-3.50
2008,12,15,10,46,-3.50
2008,12,15,10,47,-3.50
2008,12,15,10,48,-3.40
2008,12,15,10,49,-3.50
2008,12,15,10,50,-3.50
2008,12,15,10,51,-3.60
2008,12,15,10,52,-3.60
2008,12,15,10,53,-3.60
2008,12,15,10,54,-3.60
2008,12,15,10,55,-3.60
2008,12,15,10,56,-3.60
2008,12,15,10,57,-3.50
2008,12,15,10,58,-3.50
2008,12,15,10,59,-3.40
2008,12,15,11,00,-3.40
2008,12,15,11,01,-3.40
2008,12,15,11,02,-3.30
2008,12,15,11,03,-3.40
2008,12,15,11,04,-3.40
2008,12,15,11,05,-3.40
2008,12,15,11,06,-3.30
2008,12,15,11,07,-3.30
2008,12,15,11,08,-3.20
2008,12,15,11,09,-3.20
2008,12,15,11,10,-3.20
2008,12,15,11,11,-3.10
2008,12,15,11,12,-3.10
2008,12,15,11,13,-3.10
2008,12,15,11,14,-2.90
2008,12,15,11,15,-2.70
2008,12,15,11,16,-2.70
2008,12,15,11,17,-2.70
2008,12,15,11,18,-2.60
2008,12,15,11,19,-2.60
2008,12,15,11,20,-2.50
2008,12,15,11,21,-2.50
2008,12,15,11,22,-2.50
2008,12,15,11,23,-2.40
2008,12,15,11,24,-2.40
2008,12,15,11,25,-2.30
2008,12,15,11,26,-2.30
2008,12,15,11,27,-2.30
2008,12,15,11,28,-2.30
2008,12,15,11,29,-2.20
2008,12,15,11,30,-2.20
2008,12,15,11,31,-2.20
2008,12,15,11,32,-2.20
2008,12,15,11,33,-2.10
2008,12,15,11,34,-2.10
2008,12,15,11,35,-2.10
2008,12,15,11,36,-2.10
2008,12,15,11,37,-2.10
2008,12,15,11,38,-2.10
2008,12,15,11,39,-2.10
2008,12,15,11,40,-2.10
2008,12,15,11,41,-2.10
2008,12,15,11,42,-2.10
2008,12,15,11,43,-2.20
2008,12,15,11,44,-2.30
2008,12,15,11,45,-2.30
2008,12,15,11,46,-2.20
2008,12,15,11,47,-2.20
2008,12,15,11,48,-2.20
2008,12,15,11,49,-2.20
2008,12,15,11,50,-2.20
2008,12,15,11,51,-2.20
2008,12,15,11,52,-2.20
2008,12,15,11,53,-2.20
2008,12,15,11,54,-2.20
2008,12,15,11,55,-2.20
2008,12,15,11,56,-2.20
2008,12,15,11,57,-2.30
2008,12,15,11,58,-2.30
2008,12,15,11,59,-2.30
2008,12,15,12,00,-2.30
2008,12,15,12,01,-2.30
2008,12,15,12,02,-2.20
2008,12,15,12,03,-2.20
2008,12,15,12,04,-2.20
2008,12,15,12,05,-2.20
2008,12,15,12,06,-2.30
2008,12,15,12,07,-2.30
2008,12,15,12,08,-2.30
2008,12,15,12,09,-2.30
2008,12,15,12,10,-2.30
2008,12,15,12,11,-2.30
2008,12,15,12,12,-2.30
2008,12,15,12,13,-2.30
2008,12,15,12,14,-2.30
2008,12,15,12,15,-2.30
2008,12,15,12,16,-2.30
2008,12,15,12,17,-2.30
2008,12,15,12,18,-2.30
2008,12,15,12,19,-2.30
2008,12,15,12,20,-2.30
2008,12,15,12,21,-2.30
2008,12,15,12,22,-2.20
2008,12,15,12,23,-2.20
2008,12,15,12,24,-2.20
2008,12,15,12,25,-2.20
2008,12,15,12,26,-2.20
2008,12,15,12,27,-2.20
2008,12,15,12,28,-2.20
2008,12,15,12,29,-2.20
2008,12,15,12,30,-2.20
2008,12,15,12,31,-2.20
2008,12,15,12,32,-2.20
2008,12,15,12,33,-2.30
2008,12,15,12,34,-2.30
2008,12,15,12,35,-2.30
2008,12,15,12,36,-2.30
2008,12,15,12,37,-2.30
2008,12,15,12,38,-2.40
2008,12,15,12,39,-2.40
2008,12,15,12,40,-2.40
2008,12,15,12,41,-2.40
2008,12,15,12,42,-2.40
2008,12,15,12,43,-2.40
2008,12,15,12,44,-2.30
2008,12,15,12,45,-2.30
2008,12,15,12,46,-2.30
2008,12,15,12,47,-2.30
2008,12,15,12,48,-2.30
2008,12,15,12,49,-2.30
2008,12,15,12,50,-2.20
2008,12,15,12,51,-2.20
2008,12,15,12,52,-2.20
2008,12,15,12,53,-2.20
2008,12,15,12,54,-2.20
2008,12,15,12,55,-2.20
2008,12,15,12,56,-2.10
2008,12,15,12,57,-2.10
2008,12,15,12,58,-2.10
2008,12,15,12,59,-2.10
2008,12,15,13,00,-2.10
2008,12,15,13,01,-2.10
2008,12,15,13,02,-2.10
2008,12,15,13,03,-2.10
2008,12,15,13,04,-2.10
2008,12,15,13,05,-2.10
2008,12,15,13,06,-2.10
2008,12,15,13,07,-2.00
2008,12,15,13,08,-2.00
2008,12,15,13,09,-2.00
2008,12,15,13,10,-2.00
2008,12,15,13,11,-2.00
2008,12,15,13,12,-1.90
2008,12,15,13,13,-2.00
2008,12,15,13,14,-1.90
2008,12,15,13,15,-1.90
2008,12,15,13,16,-1.90
2008,12,15,13,17,-1.90
2008,12,15,13,18,-1.90
2008,12,15,13,19,-1.90
2008,12,15,13,20,-1.90
2008,12,15,13,21,-1.90
2008,12,15,13,22,-1.90
2008,12,15,13,23,-1.90
2008,12,15,13,24,-1.90
2008,12,15,13,25,-1.90
2008,12,15,13,26,-1.90
2008,12,15,13,27,-2.00
2008,12,15,13,28,-2.00
2008,12,15,13,29,-2.00
2008,12,15,13,30,-2.00
2008,12,15,13,31,-2.00
2008,12,15,13,32,-2.00
2008,12,15,13,33,-1.90
2008,12,15,13,34,-1.90
2008,12,15,13,35,-2.00
2008,12,15,13,36,-2.00
2008,12,15,13,37,-2.00
2008,12,15,13,38,-2.00
2008,12,15,13,39,-1.90
2008,12,15,13,40,-1.90
2008,12,15,13,41,-1.90
2008,12,15,13,42,-1.90
2008,12,15,13,43,-1.90
2008,12,15,13,44,-1.90
2008,12,15,13,45,-1.90
2008,12,15,13,46,-1.90
2008,12,15,13,47,-1.90
2008,12,15,13,48,-1.90
2008,12,15,13,49,-1.90
2008,12,15,13,50,-1.90
2008,12,15,13,51,-1.90
2008,12,15,13,52,-1.80
2008,12,15,13,53,-1.80
2008,12,15,13,54,-1.80
2008,12,15,13,55,-1.70
2008,12,15,13,56,-1.70
2008,12,15,13,57,-1.70
2008,12,15,13,58,-1.70
2008,12,15,13,59,-1.70
2008,12,15,14,00,-1.70
2008,12,15,14,01,-1.70
2008,12,15,14,02,-1.70
2008,12,15,14,03,-1.70
2008,12,15,14,04,-1.70
2008,12,15,14,05,-1.70
2008,12,15,14,06,-1.70
2008,12,15,14,07,-1.60
2008,12,15,14,08,-1.60
2008,12,15,14,09,-1.60
2008,12,15,14,10,-1.60
2008,12,15,14,11,-1.60
2008,12,15,14,12,-1.60
2008,12,15,14,13,-1.60
2008,12,15,14,14,-1.60
2008,12,15,14,15,-1.60
2008,12,15,14,16,-1.60
2008,12,15,14,17,-1.70
2008,12,15,14,18,-1.60
2008,12,15,14,19,-1.60
2008,12,15,14,20,-1.60
2008,12,15,14,21,-1.60
2008,12,15,14,22,-1.60
2008,12,15,14,23,-1.60
2008,12,15,14,24,-1.60
2008,12,15,14,25,-1.60
2008,12,15,14,26,-1.60
2008,12,15,14,27,-1.60
2008,12,15,14,28,-1.60
2008,12,15,14,29,-1.60
2008,12,15,14,30,-1.60
2008,12,15,14,31,-1.50
2008,12,15,14,32,-1.50
2008,12,15,14,33,-1.50
2008,12,15,14,34,-1.50
2008,12,15,14,35,-1.50
2008,12,15,14,36,-1.50
2008,12,15,14,37,-1.50
2008,12,15,14,38,-1.60
2008,12,15,14,39,-1.50
2008,12,15,14,40,-1.50
2008,12,15,14,41,-1.50
2008,12,15,14,42,-1.60
2008,12,15,14,43,-1.60
2008,12,15,14,44,-1.60
2008,12,15,14,45,-1.60
2008,12,15,14,46,-1.60
2008,12,15,14,47,-1.60
2008,12,15,14,48,-1.60
2008,12,15,14,49,-1.60
2008,12,15,14,50,-1.60
2008,12,15,14,51,-1.60
2008,12,15,14,52,-1.60
2008,12,15,14,53,-1.60
2008,12,15,14,54,-1.60
2008,12,15,14,55,-1.60
2008,12,15,14,56,-1.60
2008,12,15,14,57,-1.60
2008,12,15,14,58,-1.60
2008,12,15,14,59,-1.60
2008,12,15,15,00,-1.60
2008,12,15,15,01,-1.60
2008,12,15,15,02,-1.50
2008,12,15,15,03,-1.50
2008,12,15,15,04,-1.50
2008,12,15,15,05,-1.50
2008,12,15,15,06,-1.50
2008,12,15,15,07,-1.50
2008,12,15,15,08,-1.40
2008,12,15,15,09,-1.40
2008,12,15,15,10,-1.40
2008,12,15,15,11,-1.40
2008,12,15,15,12,-1.40
2008,12,15,15,13,-1.40
2008,12,15,15,14,-1.50
2008,12,15,15,15,-1.50
2008,12,15,15,16,-1.60
2008,12,15,15,17,-1.60
2008,12,15,15,18,-1.60
2008,12,15,15,19,-1.70
2008,12,15,15,20,-1.70
2008,12,15,15,21,-1.70
2008,12,15,15,22,-1.70
2008,12,15,15,23,-1.70
2008,12,15,15,24,-1.70
2008,12,15,15,25,-1.80
2008,12,15,15,26,-1.80
2008,12,15,15,27,-1.80
2008,12,15,15,28,-1.80
2008,12,15,15,29,-1.80
2008,12,15,15,30,-1.80
2008,12,15,15,31,-1.80
2008,12,15,15,32,-1.80
2008,12,15,15,33,-1.80
2008,12,15,15,34,-1.90
2008,12,15,15,35,-1.90
2008,12,15,15,36,-1.90
2008,12,15,15,37,-1.90
2008,12,15,15,38,-1.90
2008,12,15,15,39,-2.00
2008,12,15,15,40,-2.00
2008,12,15,15,41,-2.00
2008,12,15,15,42,-2.00
2008,12,15,15,43,-2.10
2008,12,15,15,44,-2.10
2008,12,15,15,45,-2.10
2008,12,15,15,46,-2.20
2008,12,15,15,47,-2.20
2008,12,15,15,48,-2.20
2008,12,15,15,49,-2.20
2008,12,15,15,50,-2.30
2008,12,15,15,51,-2.30
2008,12,15,15,52,-2.30
2008,12,15,15,53,-2.40
2008,12,15,15,54,-2.40
2008,12,15,15,55,-2.40
2008,12,15,15,56,-2.50
2008,12,15,15,57,-2.50
2008,12,15,15,58,-2.50
2008,12,15,15,59,-2.60
2008,12,15,16,00,-2.60
2008,12,15,16,01,-2.60
2008,12,15,16,02,-2.60
2008,12,15,16,03,-2.70
2008,12,15,16,04,-2.70
2008,12,15,16,05,-2.70
2008,12,15,16,06,-2.70
2008,12,15,16,07,-2.70
2008,12,15,16,08,-2.80
2008,12,15,16,09,-2.80
2008,12,15,16,10,-2.80
2008,12,15,16,11,-2.80
2008,12,15,16,12,-2.80
2008,12,15,16,13,-2.80
2008,12,15,16,14,-2.80
2008,12,15,16,15,-2.80
2008,12,15,16,16,-2.80
2008,12,15,16,17,-2.80
2008,12,15,16,18,-2.80
2008,12,15,16,19,-2.80
2008,12,15,16,20,-2.80
2008,12,15,16,21,-2.80
2008,12,15,16,22,-2.80
2008,12,15,16,23,-2.80
2008,12,15,16,24,-2.80
2008,12,15,16,25,-2.80
2008,12,15,16,26,-2.80
2008,12,15,16,27,-2.80
2008,12,15,16,28,-2.80
2008,12,15,16,29,-2.80
2008,12,15,16,30,-2.80
2008,12,15,16,31,-2.80
2008,12,15,16,32,-2.80
2008,12,15,16,33,-2.90
2008,12,15,16,34,-3.00
2008,12,15,16,35,-3.20
2008,12,15,16,36,-3.40
2008,12,15,16,37,-3.50
2008,12,15,16,38,-3.70
2008,12,15,16,39,-3.80
2008,12,15,16,40,-3.80
2008,12,15,16,41,-3.80
2008,12,15,16,42,-3.80
2008,12,15,16,43,-3.90
2008,12,15,16,44,-3.90
2008,12,15,16,45,-3.90
2008,12,15,16,46,-3.90
2008,12,15,16,47,-3.90
2008,12,15,16,48,-3.90
2008,12,15,16,49,-4.00
2008,12,15,16,50,-4.00
2008,12,15,16,51,-4.00
2008,12,15,16,52,-4.10
2008,12,15,16,53,-4.20
2008,12,15,16,54,-4.20
2008,12,15,16,55,-4.30
2008,12,15,16,56,-4.30
2008,12,15,16,57,-4.40
2008,12,15,16,58,-4.40
2008,12,15,16,59,-4.40
2008,12,15,17,00,-4.40
2008,12,15,17,01,-4.40
2008,12,15,17,02,-4.40
2008,12,15,17,03,-4.30
2008,12,15,17,04,-4.30
2008,12,15,17,05,-4.30
2008,12,15,17,06,-4.20
2008,12,15,17,07,-4.20
2008,12,15,17,08,-4.20
2008,12,15,17,09,-4.20
2008,12,15,17,10,-4.20
2008,12,15,17,11,-4.20
2008,12,15,17,12,-4.20
2008,12,15,17,13,-4.20
2008,12,15,17,14,-4.20
2008,12,15,17,15,-4.20